Location: Ch�teau-Arnoux
(44.0814°N, 6.0027°E)
Time: 08:17:05
(UTC+00:00)

SL-4 R/B - Pass Details

Date: 15 November 2019
Orbit: 428 x 667 km, 51.6° (Epoch: 08 December)

Event Time Altitude Azimuth Distance (km) Brightness Sun altitude
Exits shadow 05:47:03 - 304° (WNW) 2,163 4.4 -8.1°
Reaches altitude 10° 05:47:14 10° 304° (NW) 2,093 4.4 -8.1°
Maximum altitude 05:52:04 63° 26° (NNE) 742 2.7 -7.3°
Drops below altitude 10° 05:56:48 10° 107° (ESE) 2,052 6.8 -6.4°
Sets 05:59:07 0° 111° (ESE) 2,937 8.6 -6.1°
